Time,TemperatureF,DewpointF,PressureIn,WindDirection,WindDirectionDegrees,WindSpeedMPH,WindSpeedGustMPH,Humidity,HourlyPrecipIn,Conditions,Clouds,dailyrainin,SoftwareType,DateUTC
2013-11-19 00:55:00,75.4,70.6,29.88,SW,217,0.0,4.0,85,0.00,,BKN220,0.00,VWS V14.00,2013-11-19 05:55:00,
2013-11-19 01:55:00,74.0,70.2,29.87,SW,221,0.0,3.0,88,0.00,,OVC250,0.00,VWS V14.00,2013-11-19 06:55:00,
2013-11-19 02:55:00,72.8,70.0,29.86,SW,223,0.0,3.0,91,0.00,,BKN250,0.00,VWS V14.00,2013-11-19 07:55:00,
2013-11-19 03:54:00,72.3,70.2,29.84,SW,224,0.0,2.0,93,0.00,,SCT055,0.00,VWS V14.00,2013-11-19 08:54:00,
2013-11-19 04:54:00,73.2,70.4,29.85,SW,220,0.0,4.0,91,0.00,,OVC080,0.00,VWS V14.00,2013-11-19 09:54:00,
2013-11-19 05:54:00,73.5,70.1,29.86,SW,236,0.0,4.0,89,0.00,,OVC050,0.00,VWS V14.00,2013-11-19 10:54:00,
2013-11-19 06:55:00,72.8,70.3,29.86,WSW,244,0.0,4.0,92,0.00,,OVC090,0.00,VWS V14.00,2013-11-19 11:55:00,
2013-11-19 07:55:00,72.8,70.7,29.89,WSW,243,0.0,3.0,93,0.00,,OVC090,0.00,VWS V14.00,2013-11-19 12:55:00,
2013-11-19 08:55:00,73.8,71.3,29.90,West,280,2.0,6.0,92,0.00,,BKN055,0.00,VWS V14.00,2013-11-19 13:55:00,
2013-11-19 09:54:00,76.4,71.2,29.91,North,360,3.0,7.0,84,0.00,,BKN065,0.00,VWS V14.00,2013-11-19 14:54:00,
2013-11-19 10:54:00,80.9,71.8,29.90,WNW,295,3.0,8.0,74,0.00,,SCT095,0.00,VWS V14.00,2013-11-19 15:54:00,
2013-11-19 11:54:00,79.9,72.4,29.88,East,92,0.0,9.0,78,0.00,,SCT095,0.00,VWS V14.00,2013-11-19 16:54:00,
2013-11-19 12:54:00,80.7,72.8,29.86,NE,43,0.0,7.0,77,0.00,,BKN075,0.00,VWS V14.00,2013-11-19 17:54:00,
2013-11-19 13:54:00,79.7,73.4,29.84,NE,34,3.0,10.0,81,0.00,,BKN075,0.00,VWS V14.00,2013-11-19 18:54:00,
2013-11-19 14:54:00,76.2,73.1,29.84,NE,54,2.0,10.0,90,0.04,,BKN065,0.22,VWS V14.00,2013-11-19 19:54:00,
2013-11-19 15:55:00,73.8,72.0,29.85,ESE,104,0.0,8.0,94,4.00,,BKN065,2.07,VWS V14.00,2013-11-19 20:55:00,
2013-11-19 16:55:00,72.2,71.0,29.86,ENE,67,0.0,6.0,96,0.76,,-RA,3.56,VWS V14.00,2013-11-19 21:55:00,
2013-11-19 17:55:00,72.1,70.6,29.87,East,89,2.0,6.0,95,0.04,,RA,3.62,VWS V14.00,2013-11-19 22:55:00,
2013-11-19 18:55:00,73.0,71.5,29.88,ENE,66,0.0,6.0,95,0.00,,BKN110,3.62,VWS V14.00,2013-11-19 23:55:00,
2013-11-19 19:55:00,72.7,71.2,29.89,ENE,69,0.0,11.0,95,0.00,,SCT180,3.62,VWS V14.00,2013-11-20 00:55:00,
2013-11-19 20:54:00,71.9,70.7,29.91,ENE,69,0.0,0.0,96,0.00,,BKN070,3.62,VWS V14.00,2013-11-20 01:54:00,
2013-11-19 21:54:00,72.5,71.3,29.91,NW,315,0.0,4.0,96,0.00,,SCT070,3.62,VWS V14.00,2013-11-20 02:54:00,
2013-11-19 22:55:00,72.5,71.3,29.91,NW,315,0.0,4.0,96,0.00,,BKN022,3.62,VWS V14.00,2013-11-20 03:55:00,
2013-11-19 23:56:00,72.1,70.3,29.90,NE,55,0.0,7.0,94,0.00,,SCT034,0.00,VWS V14.00,2013-11-20 04:56:00,